Regional Weather Roundup
Issued by NWS

Home | Current Version | Previous Version | Graphics & Text | Print | Product List | Glossary On
Versions: 1 2 3 4 5 6 7 8 9 10 11 12 13 14 15 16 17 18 19 20 21 22 23 24 25 26 27 28 29 30 31 32 33 34 35 36 37 38 39 40 41 42 43 44 45 46 47 48 49 50
000
ASUS43 KOAX 091010
RWRNE

WEATHER ROUNDUP FOR NEBRASKA
NATIONAL WEATHER SERVICE OMAHA NE
400 AM CST FRI DEC 09 2016

NOTES: SATELLITE DATA IS BEING USED TO AUGMENT CLOUD COVER ABOVE
       12000 FEET.
       "FAIR" INDICATES FEW OR NO CLOUDS BELOW 12,000 FEET WITH NO
       SIGNIFICANT WEATHER AND/OR OBSTRUCTIONS TO VISIBILITY.

  * THESE STATIONS DO NOT REPORT WEATHER SUCH AS RAIN...SNOW OR FOG.

NEZ001>004-019>022-054>056-091100-
NEBRASKA PANHANDLE

CITY           SKY/WX    TMP DP  RH WIND       PRES   REMARKS
SCOTTSBLUFF    CLOUDY    12   5  73 SE14      30.15F WCI  -3
ALLIANCE       CLOUDY    11   4  73 S15       30.19F WCI  -5
CHADRON        CLOUDY    10   2  69 SE3       30.22F
KIMBALL        CLOUDY    14  10  83 S15       30.11F WCI  -2
SIDNEY         CLOUDY    12   5  73 S16       30.18F WCI  -5
$$

NEZ057>060-069>072-079>082-091100-
SOUTHWEST NEBRASKA

CITY           SKY/WX    TMP DP  RH WIND       PRES   REMARKS
NORTH PLATTE   CLOUDY     3  -2  79 E9        30.41F WCI -12
IMPERIAL       CLOUDY     9   2  73 SE10      30.32F WCI  -5
LEXINGTON      CLOUDY     7   2  81 E6        30.46F WCI  -3
MCCOOK         CLOUDY     3  -2  79 E3        30.43F
OGALLALA       CLOUDY    10   4  75 SE10      30.32F WCI  -4
$$

NEZ005>010-023>029-035>040-094-091100-
NORTH CENTRAL NEBRASKA

CITY           SKY/WX    TMP DP  RH WIND       PRES   REMARKS
VALENTINE      CLOUDY     1  -5  75 E5        30.43F WCI  -9
AINSWORTH      CLOUDY     4   0  83 SE6       30.43F WCI  -7
BROKEN BOW     CLOUDY     1  -3  83 CALM      30.46F
O`NEILL        CLOUDY     2  -1  84 CALM      30.53F
ORD            CLOUDY    -1  -7  75 CALM      30.52F
THEDFORD       CLOUDY     0  -5  80 CALM      30.39F
$$

NEZ041-046>049-061>064-073>077-083>087-091100-
SOUTH CENTRAL NEBRASKA

CITY           SKY/WX    TMP DP  RH WIND       PRES   REMARKS
GRAND ISLAND   CLOUDY     4   1  88 E5        30.56F WCI  -5
AURORA         CLOUDY     5  -1  76 E5        30.56F WCI  -4
HASTINGS       CLOUDY    10   2  69 E3        30.54F
HEBRON         CLOUDY     6   2  86 CALM      30.61S
HOLDREGE       CLOUDY     3  -2  78 SE6       30.48F WCI  -8
KEARNEY *      CLOUDY     3  -2  78 CALM      30.52S
YORK           PTCLDY     5   1  85 CALM      30.58F
$$

NEZ011>018-030>034-042>045-091100-
NORTHEAST NEBRASKA

CITY           SKY/WX    TMP DP  RH WIND       PRES   REMARKS
NORFOLK        CLOUDY     2  -3  80 NW3       30.58F
ALBION         PTCLDY     1  -4  81 CALM      30.56F
BLAIR          CLEAR      7   3  84 NW5       30.60S WCI  -2
FREMONT        CLEAR      5   1  83 W3        30.63S
TEKAMAH        CLEAR      4  -1  80 NW7       30.64F WCI  -8
WAYNE          CLOUDY    -1  -4  85 CALM      30.60F
$$

NEZ050>053-065>068-078-088>093-091100-
SOUTHEAST NEBRASKA

CITY           SKY/WX    TMP DP  RH WIND       PRES   REMARKS
LINCOLN        CLEAR      4   0  83 NE3       30.64F
OMAHA EPPLEY   CLEAR      9   2  73 N5        30.65S WCI   1
BEATRICE       CLOUDY     5   1  84 CALM      30.62S
FALLS CITY     CLEAR      9   5  84 W5        30.65S WCI   1
NEBRASKA CITY  CLEAR     11   2  68 NW5       30.63S WCI   3
PLATTSMOUTH    CLEAR      9   2  75 NW7       30.63S WCI  -3
$$

NEZ044-045-051>053-067-091100-
OMAHA AREA

CITY           SKY/WX    TMP DP  RH WIND       PRES   REMARKS
OMAHA EPPLEY   CLEAR      9   2  73 N5        30.65S WCI   1
BLAIR          CLEAR      7   3  84 NW5       30.60S WCI  -2
FREMONT        CLEAR      5   1  83 W3        30.63S
MILLARD        CLEAR     10   4  77 CALM      30.65S
OFFUTT AFB     CLEAR      8   4  85 W5        30.63F WCI   0
PLATTSMOUTH    CLEAR      9   2  75 NW7       30.63S WCI  -3
WAHOO          FAIR       4   0  81 N5        30.63F WCI  -5
$$



USA.gov is the U.S. government's official web portal to all federal, state and local government web resources and services.